This is the latest recevied weather packets stored in our database for station/object VK6WB. If no packets are shown the sender has not sent any weather packets the latest 10 day(s).
| Time | Temp. | Humidity | Pressure | Rain* | Wind** | Luminosity | Snow |
|---|---|---|---|---|---|---|---|
| 1778024405 | 13.33° C | 31% | 1024.6 hPa | 0 mm | - | 65 W/m² | - |
| 1778023804 | 12.78° C | 34% | 1024.5 hPa | 0 mm | - | 65 W/m² | - |
| 1778023204 | 12.22° C | 39% | 1024.4 hPa | 0 mm | - | 65 W/m² | - |
| 1778022604 | 12.22° C | 41% | 1024.1 hPa | 0 mm | - | 65 W/m² | - |
| 1778022004 | 11.67° C | 44% | 1024 hPa | 0 mm | - | 65 W/m² | - |
| 1778021404 | 11.67° C | 45% | 1023.9 hPa | 0 mm | - | 65 W/m² | - |
| 1778020804 | 12.22° C | 46% | 1023.9 hPa | 0 mm | - | 65 W/m² | - |
| 1778020204 | 12.22° C | 46% | 1023.8 hPa | 0 mm | - | 65 W/m² | - |
| 1778019603 | 12.22° C | 46% | 1023.9 hPa | 0 mm | - | 65 W/m² | - |
| 1778019004 | 12.78° C | 46% | 1023.6 hPa | 0 mm | - | 65 W/m² | - |
| 1778018403 | 12.78° C | 47% | 1023.6 hPa | 0 mm | - | 65 W/m² | - |
| 1778017804 | 12.78° C | 47% | 1023.5 hPa | 0 mm | - | 65 W/m² | - |
| 1778017204 | 12.78° C | 48% | 1023.4 hPa | 0 mm | - | 65 W/m² | - |
| 1778016603 | 12.78° C | 49% | 1023.4 hPa | 0 mm | - | 65 W/m² | - |
| 1778016004 | 12.78° C | 50% | 1023.4 hPa | 0 mm | - | 65 W/m² | - |
| 1778015404 | 13.33° C | 50% | 1023.3 hPa | 0 mm | - | 65 W/m² | - |
| 1778014803 | 13.33° C | 50% | 1023.1 hPa | 0 mm | - | 65 W/m² | - |
| 1778014204 | 13.33° C | 50% | 1023.1 hPa | 0 mm | - | 65 W/m² | - |
| 1778013603 | 13.33° C | 50% | 1023.1 hPa | 0 mm | - | 65 W/m² | - |
| 1778013004 | 13.33° C | 51% | 1023 hPa | 0 mm | - | 65 W/m² | - |
| 1778012404 | 13.33° C | 51% | 1023 hPa | 0 mm | - | 65 W/m² | - |
| 1778011804 | 13.33° C | 52% | 1022.9 hPa | 0 mm | - | 65 W/m² | - |
| 1778011203 | 13.33° C | 52% | 1022.9 hPa | 0 mm | - | 65 W/m² | - |
| 1778010604 | 13.33° C | 52% | 1022.9 hPa | 0 mm | - | 65 W/m² | - |
| 1778010006 | 13.89° C | 52% | 1022.9 hPa | 0 mm | - | 65 W/m² | - |
* Rain latest hour (hover to see other rain measurements)
** Current wind speed in m/s (hover to see current wind gust speed)